Theta_e
325 324 323 319 315 315 315 315 315 316 316 315 315 315 315 316 317 317 317 317 316 315 316 316 315 314 316 318 317 315 314 315 315 317 323 324 324 324 324 320 318 319 314 312 311 311 312
326 325 325 324 323 317 315 315 315 315 316 316 315 315 315 315 317 317 317 317 317 316 315 316 315 314 316 319 315 314 314 315 316 319 320 322 323 322 320 317 318 315 314 312 311 311 310
322 324 324 325 325 324 319 315 315 315 315 316 316 315 315 315 315 317 317 317 317 317 315 316 315 315 315 316 314 314 314 315 316 319 319 319 319 320 318 315 313 314 315 313 312 312 311
320 321 321 323 325 325 324 322 316 315 315 315 315 316 315 316 315 316 318 318 318 317 315 316 315 314 316 314 313 313 315 315 315 318 318 318 318 316 316 313 314 316 317 320 314 312 309
315 319 320 321 323 325 325 324 323 317 315 315 315 315 316 316 316 315 317 318 318 318 315 315 314 314 316 313 314 313 314 315 315 315 315 314 315 315 314 319 320 318 320 319 317 312 312
320 321 322 322 322 324 325 325 325 323 318 315 315 315 315 316 316 315 318 318 318 316 314 315 315 315 313 315 313 313 313 315 316 315 316 317 318 320 320 320 320 318 318 317 317 314 311
318 320 320 323 322 322 322 325 324 324 324 318 315 315 315 316 316 316 318 318 318 318 316 318 316 315 313 313 313 313 313 314 315 316 319 318 320 322 319 317 315 315 316 316 316 313 312
315 317 318 319 319 320 320 322 324 323 324 324 317 315 315 316 316 316 317 320 317 317 320 317 314 314 313 313 314 313 313 315 316 319 318 319 321 316 314 313 314 315 316 317 314 311 310
310 306 312 314 316 316 316 317 324 323 322 323 323 315 315 316 315 317 319 317 317 316 319 316 315 315 314 313 315 314 313 315 317 318 319 319 317 312 313 315 315 316 315 315 313 312 312
305 305 307 307 309 306 308 313 319 323 321 323 323 318 315 315 317 317 319 317 316 315 320 318 316 315 313 314 315 312 313 315 315 317 317 317 312 313 314 315 313 316 311 311 312 314 319
302 301 303 306 307 312 313 313 314 318 319 320 324 322 316 315 316 319 318 317 315 316 322 316 315 313 313 315 314 313 312 314 317 316 316 316 313 313 314 314 311 313 310 311 313 314 316
299 299 299 300 303 307 313 316 317 318 318 319 323 323 316 315 315 317 318 316 316 321 321 318 316 316 315 315 315 313 314 313 313 315 315 314 309 311 311 309 309 310 312 313 314 316 321
298 299 299 299 299 303 307 308 313 316 317 319 322 323 319 315 318 316 318 317 321 321 317 318 318 316 317 317 316 315 316 316 317 317 318 314 313 308 307 311 310 310 315 322 325 324 323
300 300 299 299 300 299 304 308 307 308 314 317 320 323 323 317 315 316 317 320 321 320 319 317 317 317 318 317 317 316 316 317 316 316 317 318 318 312 308 310 311 313 314 318 321 322 320
300 300 300 300 300 299 299 307 310 309 308 315 318 323 323 321 315 315 319 321 320 320 318 318 317 318 319 317 316 316 317 318 317 316 317 317 316 307 306 306 308 313 315 312 316 316 316
303 301 300 300 300 300 299 301 308 311 310 314 319 323 322 322 315 315 320 321 320 317 317 318 320 319 320 319 317 318 319 316 316 313 313 316 316 309 307 306 307 309 309 316 317 325 322
304 304 303 302 300 299 299 299 304 311 312 316 321 323 320 321 315 317 320 320 320 316 317 319 320 320 320 320 319 319 319 315 313 312 312 315 315 312 309 310 314 310 312 311 313 315 320
306 304 303 303 302 301 300 299 300 308 311 316 321 321 319 318 318 318 320 319 317 318 316 318 318 319 319 319 320 320 320 318 312 312 314 314 316 316 314 308 307 308 312 313 317 322 315
308 307 306 304 302 301 300 301 300 304 311 317 320 321 317 315 322 321 319 317 317 318 318 318 318 319 319 319 320 320 318 311 310 312 314 313 316 317 314 310 308 310 311 311 313 313 318
311 308 307 306 304 301 301 301 301 301 310 315 319 320 317 315 319 320 321 319 318 316 317 318 318 318 318 319 319 320 318 312 309 310 307 310 316 317 319 318 316 313 311 309 312 317 320
316 313 308 306 305 303 301 301 301 299 308 314 317 319 318 320 318 318 319 319 320 319 316 317 317 318 318 319 319 318 319 313 309 310 310 313 317 318 317 315 312 313 314 311 311 313 316
322 316 313 308 305 303 302 302 301 299 307 316 319 317 315 317 315 318 318 318 319 319 318 317 317 318 318 318 319 319 319 318 318 312 312 312 316 315 316 316 314 312 313 313 312 311 312
323 321 316 313 306 303 302 302 301 299 304 315 317 315 315 317 316 317 319 318 318 318 317 317 317 318 318 318 317 317 316 316 317 316 315 315 316 316 318 314 313 316 315 314 314 313 313
321 321 319 316 311 306 302 302 300 299 300 309 316 317 316 319 317 317 316 316 317 317 318 316 314 316 314 312 311 312 312 312 313 313 314 315 316 317 319 318 319 318 311 311 315 314 313
319 319 319 317 315 309 304 301 300 298 298 305 311 315 316 319 317 316 316 315 315 315 316 316 311 309 310 311 316 316 316 314 313 311 310 312 316 324 320 319 319 318 314 310 312 315 313
319 318 317 317 315 312 311 302 301 298 296 299 308 314 315 315 317 315 315 315 316 316 315 313 308 307 308 314 318 321 321 319 318 310 307 309 311 319 318 323 319 317 309 308 309 317 312
319 317 316 316 316 313 314 303 298 298 297 296 300 310 314 315 314 314 315 316 315 316 316 312 307 307 308 317 321 320 320 318 319 316 312 311 313 318 317 322 318 318 308 307 316 318 311
314 315 316 316 316 313 311 308 298 297 296 296 297 302 313 313 314 314 314 314 315 315 317 310 310 308 309 318 319 319 319 319 318 317 314 315 318 317 317 322 318 310 307 313 315 311 310
315 314 316 316 316 314 311 309 302 297 296 296 296 297 307 312 312 312 313 313 313 313 314 311 315 313 313 315 317 317 318 317 318 318 315 317 317 320 319 318 315 309 312 311 308 309 310
Wind_Speed
6 5 4 4 5 5 5 5 5 6 6 6 6 6 6 5 4 4 4 4 4 4 3 3 3 3 0 4 2 5 5 4 1 2 3 5 7 3 3 2 2 5 6 6 7 6 6
9 8 6 5 5 5 4 4 5 5 5 5 6 6 6 6 6 5 5 5 5 4 3 2 2 2 2 6 2 4 5 5 1 2 2 2 3 1 5 3 4 5 8 9 6 6 5
12 11 9 7 6 5 5 5 5 5 6 6 5 5 6 7 7 5 5 5 5 5 5 3 1 1 2 1 2 4 5 4 2 3 3 5 4 1 4 5 7 11 7 6 6 6 2
14 13 11 11 9 7 6 5 6 5 6 6 6 6 6 6 7 6 5 5 5 5 4 3 1 1 1 3 2 2 4 7 6 5 6 7 5 6 2 10 5 5 5 5 8 7 3
14 13 13 13 12 10 8 6 5 6 6 6 7 7 6 6 6 6 5 5 4 4 3 2 1 2 2 3 2 2 1 2 5 5 5 4 3 4 7 5 5 6 5 1 6 8 3
9 11 13 13 14 13 11 9 7 6 6 7 7 7 7 6 6 5 3 3 3 3 2 1 4 4 4 3 4 3 3 4 1 2 1 3 3 5 6 6 5 7 6 0 4 6 7
10 13 13 12 12 12 15 12 10 8 6 6 7 7 7 6 5 3 0 1 1 2 5 3 2 3 3 3 5 2 4 3 3 6 8 2 7 3 7 4 5 5 5 6 3 2 6
10 13 16 16 15 14 17 15 13 10 8 7 7 8 7 5 3 0 2 1 1 3 2 5 4 2 4 5 2 3 4 4 4 7 2 6 5 6 3 2 4 4 6 3 3 1 4
8 8 12 15 19 21 20 16 15 12 9 8 7 7 6 4 0 2 3 3 2 1 5 3 3 4 2 5 3 4 4 3 4 6 5 8 5 3 2 4 7 5 6 4 4 4 10
9 7 7 8 7 9 10 12 14 14 11 10 7 5 4 1 2 2 1 2 1 1 5 6 4 2 2 2 4 2 5 2 4 4 2 3 3 3 4 7 5 9 3 2 4 4 3
9 8 8 8 5 5 6 9 13 14 13 10 8 4 3 1 4 0 4 2 2 0 5 3 5 2 3 4 3 1 3 3 5 2 4 4 2 3 6 3 3 5 3 5 5 7 7
10 8 8 9 5 6 7 9 10 11 11 10 9 6 3 2 2 4 3 3 2 5 2 4 4 5 7 6 3 4 3 0 0 3 3 2 1 1 4 1 1 1 6 7 4 5 5
11 10 10 11 7 6 7 9 11 12 12 11 10 8 4 4 3 6 5 3 5 5 3 5 4 5 7 6 7 6 6 7 5 4 8 5 4 2 1 4 3 4 7 3 4 4 3
12 11 11 11 9 7 7 7 8 11 12 12 11 9 6 6 7 7 4 6 8 3 2 3 2 4 5 6 3 5 4 8 7 6 6 6 5 4 2 2 4 2 4 4 5 3 5
13 12 11 10 10 8 8 7 6 7 9 11 10 7 7 7 9 10 6 9 3 3 3 6 4 5 6 4 3 5 9 8 2 9 5 3 2 3 2 1 2 3 2 3 5 2 4
15 14 12 11 10 9 8 8 7 5 5 8 8 5 7 7 9 10 7 13 3 1 2 4 6 4 3 7 6 6 6 2 3 2 2 3 3 1 2 2 2 3 3 3 4 4 4
17 15 14 13 11 10 9 8 8 5 4 7 8 6 9 11 10 10 10 15 8 4 6 5 4 4 4 3 8 4 0 4 2 4 5 2 2 4 2 6 1 4 3 4 3 3 4
19 18 16 14 13 11 10 8 8 8 6 9 4 4 6 15 9 13 12 9 2 8 7 4 4 5 5 3 5 5 3 1 3 7 5 4 2 4 1 3 2 4 3 4 2 2 2
21 20 18 17 15 12 11 9 8 10 10 8 5 4 5 12 7 11 9 4 5 7 8 6 8 7 4 5 5 7 2 2 3 5 3 5 5 3 5 3 2 5 5 6 1 1 7
23 23 21 19 17 14 12 11 9 12 14 16 3 4 5 12 12 9 14 14 13 11 14 11 6 6 7 7 6 2 5 3 4 3 2 1 3 7 7 6 2 4 7 10 10 5 7
25 24 24 22 19 17 15 12 11 14 17 18 4 4 1 7 13 15 12 3 14 11 12 11 11 14 12 10 11 8 5 5 5 5 4 3 6 9 11 9 6 9 10 12 14 21 12
30 27 26 25 22 19 18 16 14 17 20 20 6 5 2 3 3 12 13 12 15 12 12 12 14 12 17 17 14 7 13 9 9 10 7 5 4 3 11 9 10 12 14 15 19 20 19
37 33 29 27 26 22 21 20 17 19 26 11 10 7 2 4 8 8 13 14 15 16 12 17 9 15 12 14 15 9 5 3 3 6 11 6 5 4 12 0 4 10 19 17 11 11 10
39 38 34 30 29 27 25 24 21 23 29 29 15 9 7 5 9 11 5 10 15 17 15 6 9 12 4 2 3 3 1 3 6 7 9 7 10 3 7 10 11 7 1 3 12 10 12
41 38 36 33 31 31 29 27 26 26 30 32 25 15 9 7 12 15 14 12 8 12 13 11 4 2 5 6 3 4 4 4 8 5 8 7 8 3 5 10 16 18 4 5 5 1 3
44 40 36 35 34 33 32 31 30 28 31 34 33 27 9 7 9 17 14 17 11 9 8 10 7 6 4 4 3 7 7 8 6 5 3 5 6 5 5 4 7 2 4 4 3 6 4
45 37 40 40 37 36 34 33 32 31 30 33 29 34 21 11 12 6 14 12 18 12 7 5 6 6 5 4 6 7 11 7 8 7 7 5 6 9 11 8 10 8 9 6 5 2 2
37 41 43 43 41 38 36 34 36 33 31 30 29 33 34 14 11 11 12 11 11 17 9 7 5 4 4 6 5 8 9 11 14 14 8 10 10 6 7 6 12 11 7 6 3 3 2
47 43 47 46 48 42 38 34 36 36 33 30 23 28 36 21 8 17 20 22 17 14 14 13 7 4 12 5 7 5 6 4 11 11 9 9 9 5 11 8 2 13 9 9 2 3 5
Wind_Direction
284 303 331 354 355 353 350 356 356 1 359 3 7 2 351 339 322 295 285 288 303 311 320 313 329 351 177 240 70 339 352 0 1 188 213 235 251 252 265 87 68 79 114 91 105 113 124
272 278 290 312 336 351 345 339 343 350 345 352 351 352 349 338 327 311 286 277 290 296 301 297 316 344 325 259 302 347 16 4 305 190 210 223 294 87 102 63 358 109 121 123 133 138 145
259 264 270 279 295 315 338 336 332 339 337 338 338 343 341 337 327 311 290 273 281 294 300 287 264 346 273 79 210 29 22 25 25 150 132 123 125 277 131 114 120 137 128 148 170 174 137
253 258 261 263 268 280 297 318 329 327 328 335 332 334 330 332 325 311 290 271 275 290 294 271 243 122 60 211 193 50 51 49 56 94 132 130 126 107 96 122 146 223 216 221 145 182 156
248 251 256 257 258 259 267 283 306 325 321 326 327 327 326 324 324 314 296 278 270 276 282 238 326 258 142 186 150 223 151 127 79 86 104 111 113 120 142 224 198 198 314 275 160 204 150
227 231 240 251 252 253 257 264 277 299 317 321 322 323 322 322 324 318 297 287 286 274 239 239 245 254 185 174 194 196 196 178 246 171 167 218 220 231 221 236 343 343 308 264 312 155 224
235 233 249 252 254 265 251 249 261 272 292 316 315 316 320 320 326 322 251 337 207 190 224 308 66 77 120 178 152 158 194 214 246 249 265 192 266 278 9 355 338 318 303 296 98 112 274
233 239 243 246 255 256 258 243 249 259 273 295 317 313 319 320 333 72 124 234 227 151 241 250 234 146 159 182 201 184 177 208 221 265 265 228 248 51 39 312 290 284 292 310 111 164 254
254 273 252 243 247 249 256 243 241 248 258 275 301 314 318 324 64 114 128 170 172 183 253 134 195 219 182 192 257 185 178 228 257 262 271 292 49 100 278 272 279 247 289 332 318 304 244
276 288 288 287 293 252 245 235 237 240 250 259 275 307 318 317 91 161 202 182 203 240 263 130 157 168 167 179 218 219 206 224 211 291 291 347 82 256 260 280 311 290 70 296 293 291 344
273 283 290 298 301 271 242 240 241 242 243 248 263 291 306 224 190 214 222 194 186 315 275 107 135 167 184 205 128 140 200 252 259 190 239 76 194 247 263 19 337 11 302 280 281 269 298
262 271 278 290 286 272 244 241 245 248 243 238 248 263 279 239 217 212 196 178 155 230 234 132 141 169 182 195 173 138 171 198 157 212 220 55 122 300 4 77 4 23 267 245 250 252 232
257 263 267 278 283 275 259 249 246 244 237 229 229 236 238 212 199 203 191 187 226 249 138 148 176 191 213 182 191 204 195 193 235 227 206 165 172 123 229 250 185 238 271 239 202 211 12
258 262 265 270 280 265 267 261 256 249 238 227 225 226 222 222 210 199 193 229 242 36 194 92 162 186 211 162 209 198 222 239 213 258 297 268 218 188 126 312 340 297 319 308 298 314 342
251 257 265 272 278 267 258 264 266 252 235 221 220 226 231 227 198 190 219 220 280 214 107 164 170 230 182 190 287 216 229 258 18 206 253 281 142 120 34 324 304 111 249 2 295 231 267
245 249 255 261 268 271 259 251 253 250 229 206 194 226 224 203 191 183 228 243 243 75 166 189 233 227 246 166 206 200 189 115 176 200 157 37 259 204 111 243 188 268 348 247 191 303 285
247 247 250 255 255 259 260 247 239 228 213 190 173 213 224 199 176 199 224 226 238 217 228 220 232 215 246 209 239 224 264 131 198 151 194 243 239 121 200 204 170 164 199 215 289 265 302
244 246 246 251 254 258 258 250 230 214 200 181 212 224 215 174 194 220 233 222 1 222 226 247 278 265 249 202 233 245 252 42 157 173 177 167 286 259 30 92 356 301 292 243 254 163 237
240 244 244 244 247 248 251 255 242 204 189 173 218 235 211 174 214 209 221 240 231 225 215 205 232 234 214 225 238 228 213 91 170 204 211 166 200 254 176 178 177 235 205 244 184 215 238
239 239 242 242 243 244 246 246 235 201 191 184 213 211 186 212 248 269 214 227 223 217 241 228 249 220 212 224 227 231 206 142 178 207 265 253 274 259 280 357 88 196 202 215 218 222 251
238 242 241 242 239 240 243 241 232 204 193 183 218 243 234 205 221 229 244 232 221 220 218 223 232 229 222 237 217 221 200 157 182 194 195 241 263 265 270 281 239 261 253 208 211 231 259
237 237 240 240 239 238 239 235 224 205 192 188 195 215 220 295 290 230 219 235 232 230 208 217 232 220 234 241 236 247 221 210 214 181 193 196 259 266 277 267 258 257 260 248 232 252 263
234 235 235 239 239 236 237 238 227 209 192 189 209 201 220 180 209 211 225 237 242 238 226 243 243 239 235 251 260 293 283 280 265 181 194 186 221 244 273 22 274 268 243 235 227 226 242
231 233 233 234 238 237 233 236 224 215 203 204 189 191 209 242 220 224 233 244 248 234 249 222 244 245 234 208 115 99 165 235 208 212 223 212 217 222 274 279 264 269 107 308 234 247 244
232 230 231 233 236 237 233 231 228 213 209 209 206 189 210 248 238 236 236 231 240 243 238 247 206 212 154 152 204 209 210 227 216 209 210 233 207 225 237 250 278 296 222 174 171 31 138
234 231 233 234 234 237 236 232 231 216 210 210 212 203 184 240 240 235 222 224 226 220 202 223 230 171 172 208 207 227 220 225 184 176 217 207 257 235 179 240 258 44 137 161 186 241 137
234 238 238 236 234 234 236 231 224 219 211 210 214 207 194 215 240 210 212 228 220 228 234 168 177 177 193 203 231 231 239 249 220 203 179 185 194 212 225 243 263 288 154 161 239 336 98
239 243 244 242 236 231 233 231 220 216 212 212 217 208 202 211 227 221 224 211 205 221 219 134 147 183 178 205 226 223 243 228 237 248 170 176 174 187 207 220 252 155 131 216 106 114 297
237 245 245 247 243 232 229 226 219 213 210 210 217 210 208 207 224 220 228 229 224 220 229 195 216 157 195 196 216 230 229 247 238 243 183 230 211 197 196 207 171 189 238 231 268 319 299